TimeCDT,TemperatureF,Dew PointF,Humidity,Sea Level PressureIn,VisibilityMPH,Wind Direction,Wind SpeedMPH,Gust SpeedMPH,PrecipitationIn,Events,Conditions,WindDirDegrees,DateUTC
12:53 AM,42.1,39.0,89,30.13,10.0,WSW,3.5,-,N/A,,Clear,240,2013-07-03 05:53:00
1:53 AM,39.9,37.9,93,30.12,10.0,Calm,Calm,-,N/A,,Clear,0,2013-07-03 06:53:00
2:53 AM,39.0,37.0,93,30.11,10.0,Calm,Calm,-,N/A,,Clear,0,2013-07-03 07:53:00
3:53 AM,39.9,37.9,93,30.11,10.0,Calm,Calm,-,N/A,,Clear,0,2013-07-03 08:53:00
4:53 AM,37.9,37.0,97,30.10,10.0,WSW,3.5,-,N/A,,Clear,240,2013-07-03 09:53:00
5:53 AM,42.1,39.9,92,30.11,10.0,Calm,Calm,-,N/A,,Clear,0,2013-07-03 10:53:00
6:53 AM,48.0,44.1,86,30.12,10.0,West,3.5,-,N/A,,Clear,280,2013-07-03 11:53:00
7:53 AM,55.0,46.0,72,30.12,10.0,Calm,Calm,-,N/A,,Clear,0,2013-07-03 12:53:00
8:53 AM,62.1,48.0,60,30.12,10.0,Calm,Calm,-,N/A,,Clear,0,2013-07-03 13:53:00
9:53 AM,66.0,50.0,56,30.11,10.0,Calm,Calm,-,N/A,,Clear,0,2013-07-03 14:53:00
10:53 AM,72.0,54.0,53,30.10,10.0,Calm,Calm,-,N/A,,Clear,0,2013-07-03 15:53:00
11:53 AM,73.9,52.0,46,30.08,10.0,North,3.5,-,N/A,,Clear,360,2013-07-03 16:53:00
12:53 PM,75.9,48.9,38,30.07,10.0,Calm,Calm,-,N/A,,Clear,0,2013-07-03 17:53:00
1:53 PM,77.0,55.9,48,30.06,10.0,North,6.9,-,N/A,,Clear,360,2013-07-03 18:53:00
2:53 PM,77.0,46.0,33,30.05,10.0,North,5.8,-,N/A,,Clear,10,2013-07-03 19:53:00
3:53 PM,78.1,51.1,39,30.02,10.0,North,6.9,-,N/A,,Clear,360,2013-07-03 20:53:00
4:53 PM,73.0,53.1,49,30.02,10.0,North,10.4,-,N/A,,Clear,10,2013-07-03 21:53:00
5:53 PM,72.0,55.0,55,30.01,10.0,North,6.9,-,N/A,,Clear,360,2013-07-03 22:53:00
6:53 PM,66.9,57.0,70,30.00,10.0,North,6.9,-,N/A,,Clear,10,2013-07-03 23:53:00
7:53 PM,63.0,55.0,75,30.00,10.0,North,4.6,-,N/A,,Clear,350,2013-07-04 00:53:00
8:53 PM,55.9,52.0,87,29.99,10.0,Calm,Calm,-,N/A,,Clear,0,2013-07-04 01:53:00
9:53 PM,52.0,50.0,93,30.00,10.0,Calm,Calm,-,N/A,,Clear,0,2013-07-04 02:53:00
10:53 PM,51.1,50.0,96,30.00,10.0,SSW,3.5,-,N/A,,Clear,210,2013-07-04 03:53:00
11:53 PM,50.0,48.9,96,30.00,10.0,SW,3.5,-,N/A,,Clear,220,2013-07-04 04:53:00